Weather Roundup
Issued by NWS Chicago, IL

Home | Current Version | Previous Version | Text Only | Print | Product List | Glossary Off
Versions: 1 2 3 4 5 6 7 8 9 10 11 12 13 14 15 16 17 18 19 20 21 22 23 24 25 26 27 28 29 30 31 32 33 34 35 36 37 38 39 40 41 42 43 44 45 46 47 48 49 50

000
NZUS59 KLOT 052103
HRRLOT

CHICAGO AREA WEATHER ROUNDUP
NATIONAL WEATHER SERVICE CHICAGO/ROMEOVILLE IL
400 PM CDT THU MAY 05 2016

NOTE: "FAIR" INDICATES FEW OR NO CLOUDS BELOW 12,000 FEET WITH NO
SIGNIFICANT WEATHER AND/OR OBSTRUCTIONS TO VISIBILITY.

* THESE STATIONS ARE NOT UNDER NWS QUALITY CONTROL. THEY ALSO MAY NOT
  REPORT WEATHER SUCH AS PRECIPITATION OR FOG.

ILZ005-006-012>014-019>023-052200-
NORTHEAST ILLINOIS

CITY           SKY/WX    TMP DP  RH WIND       PRES   REMARKS
OHARE          MOSUNNY   60  41  49 E9        29.98F
MIDWAY         MOSUNNY   58  39  49 NE10      29.99F
AURORA         SUNNY     65  44  46 N8        29.98F
LANSING*       SUNNY     54  41  61 NE8       30.00F
WAUKEGAN       SUNNY     53  40  61 NE9       29.98F
DUPAGE AIRPORT MOSUNNY   65  42  43 N8        29.97F
WHEELING       SUNNY     56  39  53 E9        30.00F
$$

WIZ051-052-058>065-066-070>072-052200-
SOUTHEAST WISCONSIN

CITY           SKY/WX    TMP DP  RH WIND       PRES   REMARKS
MILWAUKEE      MOSUNNY   54  39  57 NE8       29.99F
KENOSHA*       SUNNY     58  42  55 E12       29.98F
RACINE*        SUNNY     55  39  54 NE9       30.00F
BURLINGTON     SUNNY     63  31  29 N5        29.97F
WAUKESHA       SUNNY     61  37  41 W9        29.98F
$$

INZ001>003-010>013-019-020-052200-
NORTHWEST INDIANA

CITY           SKY/WX    TMP DP  RH WIND       PRES   REMARKS
GARY*          SUNNY     52  46  82 N14       30.02
MICHIGAN CITY* NOT AVBL
RENSSELAER*    NOT AVBL
VALPARAISO     SUNNY     54  43  66 NW10G20   29.98F
$$

LMZ740>746-052200-
SOUTHERN LAKE MICHIGAN

STATION/POSITION TIME  SKY/WX   TEMP WIND        PRES    VSBY
                                AIR  DIR/SP/G
                 (UTC)          (F)  (DEG/KT/KT) (MB)    (MI)
HARRISON CRIB    2000            45   20/ 14/ 17   N/A
BURNHAM HARBOR   2100            50  340/  9/ 11   N/A
CALUMET HARBOR   2000            47  340/ 12/ 18 1016.0F
BURNS HARBOR     2018            43   10/  6/ 11 1016.9F
MICHIGAN CITY    2000            44  330/ 11/ 13   N/A
$$

ABBREVIATIONS USED IN REMARKS
   TC - TEMPERATURE IN CELSIUS
  WCI - WIND CHILL INDEX
   HX - HEAT INDEX
  VSB - VISIBILITY
$$




USA.gov is the U.S. government's official web portal to all federal, state and local government web resources and services.